Regional Weather Roundup
Issued by NWS

Home | Current Version | Previous Version | Graphics & Text | Print | Product List | Glossary On
Versions: 1 2 3 4 5 6 7 8 9 10 11 12 13 14 15 16 17 18 19 20 21 22 23 24 25 26 27 28 29 30 31 32 33 34 35 36 37 38 39 40 41 42 43 44 45 46 47 48 49 50
000
ASUS43 KTOP 031508
RWRKS

WEATHER ROUNDUP FOR KANSAS
NATIONAL WEATHER SERVICE GOODLAND KS
1000 AM CDT FRI JUL 03 2015

NOTE:  "FAIR" INDICATES FEW OR NO CLOUDS BELOW 12,000 FEET WITH NO
SIGNIFICANT WEATHER AND/OR OBSTRUCTIONS TO VISIBILITY.

KSZ001>006-013>018-027>032-041>047-031600-
NORTHWEST KANSAS

CITY           SKY/WX    TMP DP  RH WIND       PRES   REMARKS
GOODLAND       MOSUNNY   76  57  51 CALM      30.11S
HAYS           PTSUNNY   70  57  64 N12       30.06S
HILL CITY      CLOUDY    69  63  81 NE7       30.08R HAZE
RUSSELL        CLOUDY    71  64  78 N10       30.03S
$$

KSZ061>065-074>080-084>089-031600-
SOUTHWEST KANSAS

CITY           SKY/WX    TMP DP  RH WIND       PRES   REMARKS
DODGE CITY     MOSUNNY   77  60  55 NE8       30.06R
ELKHART          N/A     80  61  52 N2          N/A
GARDEN CITY    SUNNY     78  61  55 E12       30.06S
GREAT BEND     PTSUNNY   70  63  78 N15       30.05R
LIBERAL        SUNNY     79  66  65 E3        30.09S
PRATT          SUNNY     77  61  57 N14       30.03R
$$

KSZ066>073-081>083-090>101-031600-
SOUTHEAST KANSAS

CITY           SKY/WX    TMP DP  RH WIND       PRES   REMARKS
CHANUTE        CLOUDY    73  71  93 CALM      29.94R
COFFEYVILLE    CLOUDY    78  70  76 VRB5      29.92S
HUTCHINSON     CLOUDY    72  64  76 N15G23    30.00R
MEDICINE LODGE   N/A     81  61  50 N12       29.98R
NEWTON         CLOUDY    70  63  78 N13       30.01R
PARSONS        CLOUDY    77  71  82 CALM      29.94R
WICHITA INTL   PTSUNNY   74  65  73 N16       29.97R
WICHITA JABRA  CLOUDY    71  66  84 NW13      29.98R
WICHITA MCCONL PTSUNNY   73  65  77 NW14      29.98R
WINFIELD       SUNNY     81  68  64 NW12      29.96R
$$

KSZ007>012-019>026-033>040-048>060-102>105-031600-
NORTHEAST KANSAS

CITY           SKY/WX    TMP DP  RH WIND       PRES   REMARKS
CONCORDIA      CLOUDY    71  65  81 NE14      30.02R
EMPORIA        PTSUNNY   74  67  78 N8        29.95R
LAWRENCE       CLOUDY    69  63  81 NE7       29.96S
MANHATTAN      CLOUDY    68  65  90 E7        29.99R
MARYSVILLE     PTSUNNY   70  63  78 NE6       30.00S
OLATHE IND     CLOUDY    67  65  93 NE5       29.97R
OLATHE EXE     CLOUDY    67  64  90 N5        29.96R
SALINA         PTSUNNY   76  65  68 NE16      30.00R
TOPEKA BILLARD CLOUDY    68  65  90 NE5       29.97R
TOPEKA FORBES  CLOUDY    69  65  86 NE9       29.97R FOG
$$



USA.gov is the U.S. government's official web portal to all federal, state and local government web resources and services.